Back to catalog

CZ-6A DEB

AlivePO
NORAD 61151·DEBRIS·🇨🇳 China

Launched Aug 6, 2024 from Taiyuan Satellite Launch Center

Loading…

Next Passes (next 24 hours)

TLE

FreshSource: Space-Track

Epoch: Sep 14, 2026, 18:30 UTC

1 61151U 24140QV  26257.77096826  .00004653  00000-0  50871-3 0  9994
2 61151  89.1608 273.2871 0118847 211.0806 148.3353 14.82586831111124

Track CZ-6A DEB in real time with AllMySat

Download on the App Store